Location: Tucson
(32.2217°N, 110.9265°W)
Time: 01:25:53
(UTC-07:00)

Vanguard 1 - Visible Passes

Search period start: 21 October 2021 00:00
Search period end: 31 October 2021 00:00
Orbit: 653 x 3829 km, 34.2° (Epoch: 19 October)

Date Brightness Start Highest point End Pass type
(mag) Time Alt. Az. Time Alt. Az. Time Alt. Az.
21 Oct 12.1 17:59:00 10° W 18:07:23 55° SSW 18:22:54 10° SE visible
21 Oct 13.4 20:21:19 10° W 20:31:03 25° SSW 20:45:08 10° SSE visible
22 Oct 12.4 18:20:08 10° W 18:28:38 45° SSW 18:43:41 10° SE visible
22 Oct 13.7 20:44:19 10° WSW 20:52:35 18° SSW 21:03:26 10° S visible
23 Oct 12.8 18:41:29 10° W 18:49:56 35° SSW 19:04:03 10° SSE visible
23 Oct 14.0 21:09:52 10° SW 21:14:13 11° SW 21:19:07 10° SSW visible
24 Oct 13.2 19:03:11 10° W 19:11:19 27° SSW 19:23:50 10° SSE visible
25 Oct 13.5 19:25:33 10° WSW 19:32:45 19° SSW 19:42:50 10° S visible
26 Oct 13.8 19:49:27 10° SW 19:54:18 13° SSW 20:00:09 10° S visible
27 Oct 12.9 17:45:44 10° W 17:52:18 28° SSW 18:02:41 10° SSE visible
28 Oct 13.3 18:07:41 10° WSW 18:13:37 20° SSW 18:22:08 10° SSE visible
29 Oct 13.6 18:30:48 10° SW 18:35:02 13° SSW 18:40:16 10° S visible
